Regional Weather Roundup
Issued by NWS

Home | Current Version | Previous Version | Graphics & Text | Print | Product List | Glossary On
Versions: 1 2 3 4 5 6 7 8 9 10 11 12 13 14 15 16 17 18 19 20 21 22 23 24 25 26 27 28 29 30 31 32 33 34 35 36 37 38 39 40 41 42 43 44 45 46 47 48 49 50
000
ASUS43 KOAX 181902
RWRNE

WEATHER ROUNDUP FOR NEBRASKA
NATIONAL WEATHER SERVICE OMAHA NE
100 PM CST SAT NOV 18 2017

NOTES: SATELLITE DATA IS BEING USED TO AUGMENT CLOUD COVER ABOVE
       12000 FEET.
       "FAIR" INDICATES FEW OR NO CLOUDS BELOW 12,000 FEET WITH NO
       SIGNIFICANT WEATHER AND/OR OBSTRUCTIONS TO VISIBILITY.


NEZ001>004-019>022-054>056-182000-
NEBRASKA PANHANDLE

CITY           SKY/WX    TMP DP  RH WIND       PRES   REMARKS
SCOTTSBLUFF    SUNNY     43  13  29 W18G28    30.21F
ALLIANCE       SUNNY     43  15  32 NW21G30   30.17F
CHADRON        SUNNY     44  18  35 NW16G31   30.19F
GORDON         FAIR      43  19  38 NW18G25   30.15F
KIMBALL        SUNNY     38  15  39 NW26G37   30.21F WCI  27
SIDNEY         SUNNY     42  17  36 NW25G32   30.21F
$$

NEZ057>060-069>072-079>082-182000-
SOUTHWEST NEBRASKA

CITY           SKY/WX    TMP DP  RH WIND       PRES   REMARKS
NORTH PLATTE   MOSUNNY   48  22  35 NW23G31   30.16F
IMPERIAL       SUNNY     46  16  30 NW28G38   30.20F
LEXINGTON      SUNNY     49  27  43 NW25G32   30.14F
MCCOOK         SUNNY     48  25  40 NW22      30.17F
OGALLALA       SUNNY     46  19  33 NW23G33   30.18F
$$

NEZ005>010-023>029-035>040-094-182000-
NORTH CENTRAL NEBRASKA

CITY           SKY/WX    TMP DP  RH WIND       PRES   REMARKS
VALENTINE      MOSUNNY   44  24  45 NW22G32   30.13S
AINSWORTH      MOSUNNY   42  27  55 NW21G33   30.12S
BROKEN BOW     MOSUNNY   46  28  49 NW22G32   30.12F
O`NEILL        CLOUDY    40  30  67 NW22      30.10S WCI  30
ORD            SUNNY     46  28  49 NW26G38   30.09F
THEDFORD       MOSUNNY   46  26  45 NW18G29   30.14F
$$

NEZ041-046>049-061>064-073>077-083>087-182000-
SOUTH CENTRAL NEBRASKA

CITY           SKY/WX    TMP DP  RH WIND       PRES   REMARKS
GRAND ISLAND   SUNNY     48  30  49 NW29G37   30.09S
AURORA         SUNNY     48  32  54 NW26G33   30.08S
HASTINGS       MOSUNNY   49  30  48 NW24G37   30.10S
HEBRON         SUNNY     51  32  48 NW22G30   30.08R
HOLDREGE       SUNNY     47  31  52 NW24      30.13S
KEARNEY        SUNNY     48  29  47 NW22G29   30.11F
$$

NEZ011>018-030>034-042>045-182000-
NORTHEAST NEBRASKA

CITY           SKY/WX    TMP DP  RH WIND       PRES   REMARKS
NORFOLK        SUNNY     43  28  55 NW30G41   30.02R
ALBION         MOSUNNY   47  30  52 NW26G37   30.06R
BLAIR          MOSUNNY   47  32  56 NW24G33   29.98R
COLUMBUS       SUNNY     48  31  51 NW26G33   30.03R
FREMONT        MOSUNNY   48  33  54 NW25G35   30.01R
TEKAMAH        SUNNY     46  31  55 NW26G37   29.99R
WAYNE          MOSUNNY   42  27  56 NW22G31   30.02R
$$

NEZ050>053-065>068-078-088>093-182000-
SOUTHEAST NEBRASKA

CITY           SKY/WX    TMP DP  RH WIND       PRES   REMARKS
LINCOLN        MOSUNNY   52  31  44 NW24G33   30.03R
OMAHA EPPLEY   MOSUNNY   48  32  53 NW24G37   29.97S
BEATRICE       PTSUNNY   51  34  52 NW26G35   30.03S
FALLS CITY     PTSUNNY   49  36  61 NW18G31   29.97R
NEBRASKA CITY  MOSUNNY   48  37  65 N23G31    29.98R
PLATTSMOUTH    SUNNY     47  36  65 NW23G31   29.97S
$$

NEZ044-045-051>053-067-182000-
OMAHA AREA

CITY           SKY/WX    TMP DP  RH WIND       PRES   REMARKS
OMAHA EPPLEY   MOSUNNY   48  32  53 NW24G37   29.97S
BLAIR          MOSUNNY   47  32  56 NW24G33   29.98R
FREMONT        MOSUNNY   48  33  54 NW25G35   30.01R
MILLARD        MOSUNNY   49  32  51 NW16G26   29.99R
OFFUTT AFB     SUNNY     49  33  55 NW21G33   29.97S
PLATTSMOUTH    SUNNY     47  36  65 NW23G31   29.97S
WAHOO          FAIR      50  33  52 NW25G32   30.00R
$$



USA.gov is the U.S. government's official web portal to all federal, state and local government web resources and services.